Wind_Speed
36 34 34 31 26 23 24 23 19 20 20 21 22 24 20 20 21 21 22 22 20 20 23 24 22 18 21 23 24 27 28 32 38 36 42 44 45 52 54 58 61 65 69
47 42 37 37 33 27 25 27 23 23 22 22 22 20 18 19 21 22 23 22 23 21 22 25 23 17 19 20 21 25 28 28 31 34 39 40 42 48 48 52 55 59 61
52 49 46 42 38 34 31 28 31 25 27 25 24 21 20 21 22 22 22 22 23 22 20 23 25 21 17 18 19 24 29 26 29 33 33 36 39 40 43 47 50 54 56
47 50 47 47 46 43 37 32 32 30 30 29 27 27 23 22 23 23 21 23 23 22 24 24 24 24 19 18 19 23 27 24 25 29 30 32 36 37 37 41 47 49 50
52 48 48 50 49 45 40 36 33 33 33 33 30 29 26 24 26 26 24 24 23 22 23 26 25 24 21 17 18 21 25 23 20 23 27 30 31 34 38 40 40 42 45
51 49 48 50 50 48 45 41 42 37 35 34 32 33 29 26 28 25 24 23 25 25 26 27 27 25 24 19 18 21 24 21 23 21 26 29 29 29 33 37 38 40 43
53 54 52 52 52 52 48 44 44 44 38 38 36 38 34 30 29 26 26 23 25 27 26 27 28 25 26 25 22 20 24 24 23 22 24 27 28 28 30 32 36 38 41
49 49 52 54 52 50 49 46 46 46 45 39 39 36 35 34 32 32 29 28 27 29 28 27 28 27 25 27 24 22 24 25 26 25 26 24 25 29 31 33 33 33 37
58 55 52 54 56 55 50 46 47 48 45 47 46 43 40 37 38 37 31 30 31 29 29 30 29 28 27 28 25 25 26 26 28 28 25 24 24 26 28 30 33 33 36
54 61 61 59 56 57 57 52 48 47 47 47 47 47 47 42 41 39 37 33 33 33 31 31 30 29 28 30 27 27 28 30 31 30 26 27 26 25 27 29 32 33 32
48 52 54 61 61 54 56 59 54 52 49 48 47 48 47 45 47 46 41 40 36 38 34 34 32 32 31 32 33 33 34 33 34 33 30 25 26 26 24 27 30 35 36
48 49 48 48 55 61 58 57 59 59 54 54 55 52 52 50 49 51 50 46 45 42 41 35 36 36 36 36 36 37 39 35 34 36 30 25 29 28 26 27 30 32 36
52 57 56 54 53 52 58 60 56 59 61 60 58 56 55 57 55 56 54 50 50 51 49 44 39 38 40 39 39 40 40 36 35 37 31 28 30 29 28 32 33 32 37
53 57 58 59 61 56 57 59 66 68 67 64 63 62 59 58 56 59 58 54 52 50 52 48 47 43 42 43 41 41 41 42 42 40 37 34 37 33 35 34 34 34 35
58 54 55 60 62 60 56 58 60 63 65 67 67 65 66 66 63 60 59 58 55 53 54 55 53 51 48 47 45 45 45 47 49 43 41 39 39 43 38 38 37 43 40
63 64 66 60 61 65 64 61 60 61 62 65 66 67 65 63 64 63 62 62 60 59 59 60 56 57 52 53 50 50 51 50 49 49 49 49 44 42 40 40 44 44 43
40 64 68 70 69 65 67 65 64 66 65 64 65 66 69 68 64 64 64 65 66 64 58 64 61 61 56 55 55 54 54 56 54 52 51 51 49 48 45 48 49 48 48
66 61 55 66 64 68 73 68 70 70 69 70 72 66 65 67 67 69 69 71 73 70 65 64 67 65 62 61 60 59 59 58 56 58 56 55 52 52 52 52 53 54 53
79 77 72 66 68 67 65 66 70 71 70 73 74 73 73 71 67 69 71 72 73 73 71 69 68 69 67 67 63 63 62 60 60 58 57 58 54 56 55 55 53 53 54
89 82 80 76 73 72 71 70 69 68 71 72 72 70 73 74 72 71 71 75 75 73 71 68 70 70 70 69 69 71 69 65 62 60 59 60 58 55 57 56 52 50 48
95 95 92 89 85 82 79 78 76 76 75 72 76 79 75 74 75 76 76 76 79 77 75 71 72 72 74 75 75 77 73 71 66 67 66 65 64 61 60 60 55 51 51
97 97 95 92 91 90 91 91 88 82 81 80 77 76 78 80 81 77 80 80 79 82 82 80 77 76 78 78 79 80 78 77 72 75 71 67 68 68 66 63 61 59 61
101 99 97 95 94 96 99 96 93 88 86 85 82 82 83 82 84 84 86 86 85 83 81 84 87 83 81 80 83 83 83 82 80 79 78 75 75 69 71 70 71 72 68
108 106 104 102 101 103 98 98 96 94 93 91 89 88 85 83 83 86 87 86 89 91 92 90 86 88 89 89 91 92 89 88 88 88 86 80 82 75 76 77 78 77 74
112 110 109 107 107 104 102 101 101 99 97 96 94 93 92 91 90 89 89 90 91 91 96 98 95 91 92 98 99 97 93 91 91 91 90 88 88 86 83 81 81 79 80
114 113 111 110 109 107 104 102 102 101 98 96 96 94 94 95 95 96 98 99 98 96 96 101 102 99 99 98 100 105 101 105 104 91 88 93 92 94 86 85 84 82 84
Wind_Direction
254 256 257 260 266 269 277 272 277 269 265 278 283 291 291 300 305 308 310 310 312 312 312 315 308 316 321 337 341 340 346 357 356 5 9 19 26 24 29 32 33 31 33
253 257 256 261 259 259 268 269 271 267 262 272 277 286 286 291 299 304 303 304 307 306 312 313 306 308 320 334 337 340 346 351 351 360 2 8 21 24 26 27 29 29 29
258 258 260 255 256 255 254 260 259 265 263 268 276 281 285 286 292 295 298 297 302 302 307 310 303 299 308 322 328 335 342 349 348 351 1 359 8 17 25 23 21 21 27
251 255 257 257 253 253 256 254 257 258 264 273 279 275 279 288 292 293 290 292 297 296 303 312 302 301 298 307 320 329 332 339 350 358 359 5 2 9 13 16 15 18 19
253 250 251 252 252 252 252 253 254 258 260 269 273 275 275 284 287 287 283 288 293 299 300 307 308 295 293 298 306 322 325 336 342 352 7 5 6 11 6 4 11 12 10
249 249 248 250 251 249 253 251 253 253 257 264 265 270 271 275 281 283 280 282 289 294 296 301 304 295 289 292 297 309 317 325 334 348 355 3 1 7 10 7 9 9 4
256 249 250 250 251 253 256 261 255 254 255 258 263 271 273 271 272 281 276 280 288 292 296 296 301 299 285 289 285 298 303 313 320 327 343 347 354 360 4 3 8 8 11
251 255 246 246 247 251 254 260 263 259 259 255 254 263 265 266 269 275 274 275 284 290 295 294 296 299 284 287 282 286 292 300 308 319 323 332 343 347 354 352 353 2 7
255 249 251 252 248 249 251 256 257 257 255 254 258 254 256 264 267 267 273 275 278 283 287 289 291 294 283 285 286 282 288 291 300 305 319 319 327 337 341 342 346 349 354
258 258 252 251 254 250 248 250 251 254 254 256 259 260 261 260 264 266 266 268 272 279 281 281 282 290 287 279 284 280 288 288 296 299 306 311 316 322 333 339 340 344 346
263 259 251 249 248 251 249 246 247 251 252 253 256 257 263 266 263 267 269 267 263 270 277 280 280 286 289 282 280 278 283 288 294 298 299 307 308 310 322 332 341 341 338
268 264 262 260 250 246 250 248 247 250 253 257 255 254 258 260 267 268 271 274 268 267 268 271 274 281 286 281 280 281 278 281 288 293 292 299 303 302 305 311 322 330 337
262 266 271 264 258 258 251 248 247 250 251 252 251 253 257 260 262 265 271 274 272 274 270 268 270 275 278 280 277 279 280 278 285 287 286 290 300 301 304 301 306 317 320
256 263 264 264 263 258 257 254 251 252 252 252 251 255 254 256 261 262 264 268 269 268 272 275 273 273 275 275 277 274 268 271 279 282 286 288 303 304 306 311 311 312 316
242 246 255 260 263 263 256 253 256 256 255 256 255 257 254 257 259 259 261 261 262 264 267 271 273 274 274 272 273 275 274 273 279 284 284 287 294 299 302 306 307 314 312
237 237 238 242 252 257 257 257 255 257 258 258 257 257 258 259 255 258 261 261 261 261 263 267 268 272 274 273 273 273 275 278 281 281 283 285 292 297 300 302 306 310 313
235 248 244 245 243 244 249 253 255 256 258 259 260 259 258 256 255 256 258 261 261 260 260 266 267 267 269 271 273 274 277 279 279 289 288 287 288 287 289 295 299 303 307
226 234 242 244 249 253 249 248 251 255 255 255 258 260 262 260 257 256 256 258 259 261 260 263 266 265 264 264 268 274 276 279 285 284 290 283 288 291 290 292 295 297 303
232 235 243 247 246 249 252 252 252 251 253 254 256 258 258 260 262 258 254 255 258 260 260 260 261 265 266 265 266 267 271 273 280 279 283 287 283 287 286 291 295 298 298
232 234 236 241 243 247 252 253 252 253 254 253 257 256 257 262 262 261 259 254 256 258 258 258 259 260 263 266 268 268 269 272 276 279 279 278 277 280 283 287 291 293 290
235 238 239 241 243 245 248 251 252 252 253 254 257 256 256 256 258 261 261 258 254 255 258 259 258 258 260 262 264 266 267 269 272 275 277 279 277 278 279 282 284 285 287
241 242 243 245 247 249 251 252 253 252 254 256 257 258 260 260 257 257 259 260 259 256 256 258 259 257 257 261 263 264 266 265 264 265 267 270 273 277 279 280 280 281 285
244 245 245 247 249 251 252 253 256 258 259 259 260 261 262 263 263 263 258 258 261 261 261 259 257 257 255 256 258 259 262 265 263 266 267 267 268 272 274 277 281 283 287
246 247 247 248 249 251 254 256 257 258 259 260 261 262 261 264 264 264 262 262 260 259 259 260 259 259 256 253 256 258 261 262 262 263 266 267 268 269 271 276 280 284 285
245 247 247 248 250 252 254 255 257 258 259 260 261 262 262 263 261 263 263 263 262 261 258 258 258 258 259 258 257 255 257 260 263 262 264 265 266 268 270 273 277 281 283
244 244 247 249 250 251 252 255 257 258 259 260 261 262 264 265 265 266 266 266 266 265 263 260 258 258 259 260 262 261 260 260 261 260 261 263 265 269 271 272 274 276 280
Height
10827 10829 10829 10829 10832 10834 10834 10833 10833 10833 10834 10835 10835 10834 10833 10831 10831 10828 10828 10825 10823 10821 10818 10815 10812 10810 10807 10805 10802 10797 10793 10788 10782 10777 10770 10763 10757 10750 10742 10735 10727 10719 10710
10819 10823 10823 10822 10824 10828 10828 10828 10828 10828 10829 10830 10830 10830 10829 10828 10826 10825 10824 10823 10820 10818 10815 10812 10809 10808 10805 10803 10800 10796 10792 10787 10782 10776 10771 10764 10759 10752 10744 10737 10729 10722 10715
10811 10814 10816 10815 10817 10819 10820 10821 10822 10822 10823 10825 10825 10825 10824 10823 10822 10820 10820 10819 10817 10814 10812 10809 10807 10805 10803 10800 10797 10794 10790 10786 10781 10776 10771 10765 10759 10753 10746 10739 10732 10725 10717
10801 10805 10808 10807 10810 10811 10813 10812 10814 10816 10817 10818 10818 10819 10819 10818 10817 10815 10815 10814 10813 10811 10808 10806 10803 10801 10800 10796 10794 10791 10788 10784 10780 10776 10770 10765 10759 10754 10747 10741 10734 10727 10720
10792 10795 10798 10799 10801 10804 10805 10806 10807 10809 10810 10812 10812 10813 10813 10812 10812 10811 10810 10809 10808 10807 10804 10802 10800 10797 10796 10794 10791 10789 10785 10782 10778 10774 10769 10764 10759 10753 10748 10741 10735 10729 10722
10780 10785 10788 10790 10791 10794 10797 10797 10799 10801 10802 10804 10805 10807 10807 10806 10806 10805 10804 10803 10803 10802 10800 10798 10795 10793 10791 10790 10787 10785 10782 10779 10776 10772 10767 10763 10758 10752 10747 10741 10735 10729 10722
10768 10774 10778 10781 10783 10784 10786 10789 10791 10793 10794 10796 10798 10799 10800 10800 10799 10798 10799 10798 10797 10796 10795 10793 10791 10788 10787 10786 10784 10781 10778 10775 10772 10769 10765 10761 10756 10750 10745 10740 10734 10728 10721
10757 10763 10767 10769 10773 10774 10776 10779 10781 10783 10787 10787 10789 10791 10791 10792 10793 10792 10792 10792 10792 10791 10789 10788 10785 10783 10781 10780 10779 10776 10774 10771 10768 10764 10761 10758 10753 10748 10742 10738 10732 10726 10720
10746 10749 10754 10758 10760 10764 10766 10769 10771 10772 10775 10776 10780 10782 10782 10783 10784 10785 10785 10784 10785 10785 10783 10782 10781 10778 10776 10775 10773 10771 10769 10766 10763 10760 10757 10753 10750 10745 10740 10735 10729 10724 10718
10733 10735 10739 10745 10748 10751 10756 10760 10761 10763 10765 10768 10768 10771 10773 10776 10776 10777 10778 10778 10778 10777 10776 10775 10774 10772 10770 10769 10767 10765 10763 10761 10758 10755 10752 10748 10745 10741 10737 10732 10726 10721 10715
10720 10721 10723 10728 10734 10739 10744 10748 10752 10755 10755 10757 10758 10759 10761 10764 10766 10767 10769 10770 10771 10771 10770 10767 10767 10766 10764 10762 10761 10759 10757 10754 10752 10749 10746 10743 10739 10735 10732 10728 10723 10718 10713
10708 10709 10712 10716 10721 10725 10731 10735 10740 10741 10744 10747 10749 10750 10750 10752 10754 10756 10757 10760 10762 10762 10762 10762 10760 10758 10757 10755 10753 10752 10750 10748 10745 10742 10739 10736 10734 10730 10727 10722 10718 10714 10709
10700 10698 10703 10705 10708 10712 10716 10722 10724 10727 10732 10734 10737 10739 10741 10741 10743 10744 10746 10750 10750 10751 10750 10752 10750 10750 10750 10747 10745 10742 10741 10740 10738 10735 10732 10729 10726 10723 10720 10716 10712 10708 10704
10690 10691 10692 10692 10693 10698 10703 10705 10708 10712 10716 10718 10722 10725 10728 10729 10732 10734 10736 10739 10741 10741 10740 10742 10741 10740 10740 10739 10738 10735 10733 10730 10728 10726 10725 10722 10719 10716 10713 10710 10706 10701 10697
10677 10679 10680 10680 10681 10683 10687 10692 10695 10697 10701 10703 10708 10712 10715 10717 10720 10720 10724 10726 10729 10729 10729 10730 10731 10731 10728 10727 10728 10725 10724 10722 10720 10719 10717 10714 10711 10709 10705 10702 10699 10695 10689
10658 10660 10662 10665 10667 10670 10672 10677 10681 10683 10686 10688 10693 10697 10701 10703 10705 10708 10710 10713 10715 10716 10717 10715 10721 10718 10720 10714 10716 10715 10713 10711 10710 10709 10708 10706 10704 10701 10697 10694 10691 10687 10683
10649 10643 10646 10648 10652 10652 10657 10661 10665 10669 10673 10675 10679 10682 10684 10688 10691 10694 10697 10696 10697 10700 10708 10699 10705 10706 10706 10704 10702 10702 10701 10699 10698 10698 10697 10695 10693 10691 10688 10684 10681 10677 10674
10628 10625 10632 10638 10639 10640 10642 10646 10650 10653 10658 10661 10664 10668 10668 10671 10676 10678 10680 10680 10679 10685 10692 10692 10687 10689 10692 10689 10688 10689 10686 10684 10684 10683 10684 10682 10679 10677 10676 10673 10670 10667 10663
10612 10616 10620 10623 10627 10628 10630 10634 10637 10639 10641 10645 10648 10651 10652 10655 10659 10660 10662 10663 10663 10667 10673 10676 10674 10672 10673 10672 10674 10673 10671 10671 10673 10670 10671 10670 10668 10664 10662 10660 10658 10656 10652
10596 10600 10606 10611 10614 10614 10616 10618 10621 10623 10627 10631 10634 10637 10639 10639 10641 10642 10645 10645 10646 10650 10652 10659 10659 10656 10657 10655 10655 10653 10657 10657 10658 10657 10656 10654 10653 10652 10650 10646 10645 10644 10641
10583 10587 10591 10595 10597 10598 10598 10600 10603 10607 10611 10615 10618 10621 10622 10623 10625 10625 10627 10627 10629 10632 10634 10637 10641 10640 10639 10638 10637 10633 10640 10639 10643 10639 10640 10640 10638 10637 10634 10633 10630 10630 10628
10564 10567 10574 10577 10580 10581 10580 10579 10583 10592 10598 10602 10604 10605 10607 10607 10607 10608 10609 10608 10609 10614 10616 10616 10619 10622 10621 10621 10620 10618 10618 10619 10625 10616 10621 10623 10620 10621 10617 10617 10615 10613 10611
10538 10544 10552 10557 10560 10559 10558 10565 10571 10578 10582 10586 10589 10589 10589 10588 10587 10587 10588 10590 10591 10594 10596 10595 10598 10601 10603 10601 10597 10596 10595 10597 10600 10597 10599 10606 10600 10605 10598 10599 10596 10595 10595
10513 10518 10527 10533 10535 10532 10546 10551 10555 10560 10562 10564 10566 10568 10569 10569 10567 10565 10567 10568 10571 10572 10571 10572 10576 10579 10579 10579 10574 10572 10576 10577 10578 10578 10578 10590 10581 10585 10580 10582 10579 10576 10576
10490 10496 10502 10508 10509 10520 10527 10530 10530 10535 10542 10544 10547 10547 10547 10547 10545 10542 10545 10546 10548 10548 10545 10545 10550 10558 10555 10553 10551 10551 10555 10550 10559 10562 10559 10564 10562 10562 10564 10565 10560 10556 10554
10464 10470 10477 10484 10487 10494 10504 10508 10508 10511 10518 10522 10523 10524 10523 10523 10522 10519 10518 10520 10524 10524 10522 10525 10529 10533 10532 10533 10528 10525 10529 10528 10528 10539 10541 10538 10538 10536 10549 10546 10540 10537 10534